| time (UTC) | temp C | wind direction | speed KPH | gust KPH | rain 1hr cm | rain 24hr cm | rain mn cm | humidity % | barometer mb |
| 20260506001358 | 18 | 86 | 3.2 | 8.0 | 0.00 | 0.00 | 0.00 | 51 | 1014.7 |
| 20260506000357 | 18 | 336 | 0.0 | 4.8 | 0.00 | 0.00 | 0.00 | 53 | 1014.8 |
| 20260505235357 | 17 | 319 | 4.8 | 6.4 | 0.00 | 0.00 | 0.00 | 54 | 1014.8 |
| 20260505234356 | 17 | 311 | 0.0 | 3.2 | 0.00 | 0.00 | 0.00 | 54 | 1015.1 |
| 20260505233355 | 17 | 62 | 0.0 | 3.2 | 0.00 | 0.00 | 0.00 | 53 | 1015.3 |
| 20260505232355 | 17 | 63 | 0.0 | 4.8 | 0.00 | 0.00 | 0.00 | 53 | 1015.2 |
| 20260505231355 | 17 | 36 | 0.0 | 3.2 | 0.00 | 0.00 | 0.00 | 55 | 1015.2 |
| 20260505230355 | 17 | 25 | 0.0 | 3.2 | 0.00 | 0.00 | 0.00 | 55 | 1015.3 |
| 20260505225355 | 17 | 38 | 3.2 | 4.8 | 0.00 | 0.00 | 0.00 | 55 | 1015.3 |
| 20260505223353 | 16 | 338 | 1.6 | 6.4 | 0.00 | 0.00 | 0.00 | 56 | 1015.4 |
| 20260505222353 | 16 | 334 | 1.6 | 4.8 | 0.00 | 0.00 | 0.00 | 55 | 1015.5 |
| 20260505221352 | 16 | 332 | 1.6 | 6.4 | 0.00 | 0.00 | 0.00 | 55 | 1015.5 |
| 20260505220352 | 16 | 319 | 0.0 | 8.0 | 0.00 | 0.00 | 0.00 | 55 | 1015.8 |
| 20260505214351 | 16 | 5 | 1.6 | 8.0 | 0.00 | 0.00 | 0.00 | 55 | 1015.7 |
| 20260505213350 | 16 | 111 | 4.8 | 4.8 | 0.00 | 0.00 | 0.00 | 55 | 1015.9 |
| 20260505212420 | 16 | 42 | 0.0 | 6.4 | 0.00 | 0.00 | 0.00 | 56 | 1015.9 |
| 20260505211350 | 16 | 5 | 1.6 | 3.2 | 0.00 | 0.00 | 0.00 | 55 | 1015.9 |
| 20260505210349 | 16 | 5 | 1.6 | 3.2 | 0.00 | 0.00 | 0.00 | 56 | 1016.0 |
| 20260505203351 | 16 | 355 | 3.2 | 8.0 | 0.00 | 0.00 | 0.00 | 56 | 1016.0 |
| 20260505202350 | 16 | 253 | 0.0 | 6.4 | 0.00 | 0.00 | 0.00 | 56 | 1016.0 |
| 20260505201349 | 16 | 48 | 3.2 | 6.4 | 0.00 | 0.00 | 0.00 | 57 | 1016.1 |
| 20260505200419 | 16 | 347 | 1.6 | 4.8 | 0.00 | 0.00 | 0.00 | 57 | 1016.1 |
| 20260505195349 | 16 | 94 | 0.0 | 6.4 | 0.00 | 0.00 | 0.00 | 57 | 1016.2 |
| 20260505194349 | 15 | 89 | 3.2 | 4.8 | 0.00 | 0.00 | 0.00 | 57 | 1016.2 |
| 20260505193418 | 15 | 59 | 0.0 | 6.4 | 0.00 | 0.00 | 0.00 | 58 | 1016.2 |
| 20260505192348 | 15 | 350 | 6.4 | 6.4 | 0.00 | 0.00 | 0.00 | 58 | 1016.3 |
| 20260505191347 | 15 | 347 | 3.2 | 6.4 | 0.00 | 0.00 | 0.00 | 59 | 1016.3 |
| 20260505190347 | 15 | 5 | 3.2 | 6.4 | 0.00 | 0.00 | 0.00 | 59 | 1016.2 |
| 20260505185417 | 15 | 5 | 3.2 | 6.4 | 0.00 | 0.00 | 0.00 | 60 | 1016.2 |
| 20260505184416 | 14 | 360 | 4.8 | 8.0 | 0.00 | 0.00 | 0.00 | 60 | 1016.1 |
| 20260505183416 | 14 | 344 | 3.2 | 6.4 | 0.00 | 0.00 | 0.00 | 59 | 1016.2 |
| 20260505182416 | 15 | 355 | 1.6 | 8.0 | 0.00 | 0.00 | 0.00 | 59 | 1016.2 |
| 20260505180415 | 15 | 312 | 1.6 | 4.8 | 0.00 | 0.00 | 0.00 | 59 | 1016.1 |
| 20260505175414 | 15 | 304 | 0.0 | 3.2 | 0.00 | 0.00 | 0.00 | 59 | 1016.1 |
| 20260505174414 | 15 | 111 | 3.2 | 6.4 | 0.00 | 0.00 | 0.00 | 59 | 1016.0 |
| 20260505173413 | 15 | 134 | 0.0 | 3.2 | 0.00 | 0.00 | 0.00 | 61 | 1015.9 |
| 20260505172412 | 14 | 106 | 0.0 | 4.8 | 0.00 | 0.00 | 0.00 | 62 | 1015.9 |
| 20260505171412 | 13 | 108 | 4.8 | 6.4 | 0.00 | 0.00 | 0.00 | 63 | 1015.9 |
| 20260505170412 | 13 | 94 | 1.6 | 6.4 | 0.00 | 0.00 | 0.00 | 64 | 1015.8 |
| 20260505160410 | 12 | 238 | 0.0 | 0.0 | 0.00 | 0.00 | 0.00 | 68 | 1015.8 |
| 20260505151406 | 12 | 229 | 0.0 | 0.0 | 0.00 | 0.00 | 0.00 | 69 | 1015.7 |
| 20260505140401 | 12 | 190 | 4.8 | 4.8 | 0.00 | 0.00 | 0.00 | 69 | 1015.0 |
| 20260505124400 | 12 | 188 | 0.0 | 0.0 | 0.00 | 0.00 | 0.00 | 68 | 1014.6 |
| 20260505123400 | 12 | 188 | 0.0 | 0.0 | 0.00 | 0.00 | 0.00 | 68 | 1014.7 |
| 20260505121359 | 12 | 188 | 0.0 | 0.0 | 0.00 | 0.00 | 0.00 | 68 | 1014.6 |
| 20260505120359 | 12 | 188 | 0.0 | 4.8 | 0.00 | 0.00 | 0.00 | 68 | 1014.5 |
| 20260505115359 | 12 | 222 | 0.0 | 6.4 | 0.00 | 0.00 | 0.00 | 68 | 1014.6 |
| 20260505114358 | 12 | 175 | 0.0 | 0.0 | 0.00 | 0.00 | 0.00 | 68 | 1014.5 |
| 20260505113358 | 12 | 174 | 0.0 | 1.6 | 0.00 | 0.00 | 0.00 | 68 | 1014.5 |
| 20260505112359 | 12 | 171 | 0.0 | 3.2 | 0.00 | 0.00 | 0.00 | 68 | 1014.5 |
| 20260505111357 | 12 | 171 | 0.0 | 1.6 | 0.00 | 0.00 | 0.00 | 68 | 1014.5 |
| 20260505110356 | 12 | 170 | 0.0 | 3.2 | 0.00 | 0.00 | 0.00 | 68 | 1014.5 |
| 20260505101354 | 12 | 167 | 0.0 | 4.8 | 0.00 | 0.00 | 0.00 | 68 | 1014.3 |
| 20260505100353 | 12 | 183 | 0.0 | 8.0 | 0.00 | 0.00 | 0.00 | 68 | 1014.3 |
| 20260505094421 | 12 | 169 | 0.0 | 4.8 | 0.00 | 0.00 | 0.00 | 68 | 1014.2 |
| 20260505093421 | 12 | 174 | 0.0 | 6.4 | 0.00 | 0.00 | 0.00 | 68 | 1014.0 |
| 20260505091350 | 12 | 141 | 3.2 | 6.4 | 0.00 | 0.00 | 0.00 | 68 | 1014.0 |
| 20260505090419 | 12 | 189 | 1.6 | 6.4 | 0.00 | 0.00 | 0.00 | 68 | 1014.0 |
| 20260505085349 | 12 | 163 | 0.0 | 8.0 | 0.00 | 0.00 | 0.00 | 68 | 1013.9 |
| 20260505084348 | 12 | 190 | 4.8 | 8.0 | 0.00 | 0.00 | 0.00 | 68 | 1013.9 |
| 20260505083419 | 12 | 171 | 6.4 | 9.7 | 0.00 | 0.00 | 0.00 | 68 | 1014.0 |
| 20260505082349 | 12 | 190 | 4.8 | 9.7 | 0.00 | 0.00 | 0.00 | 68 | 1013.8 |
| 20260505081417 | 12 | 177 | 0.0 | 6.4 | 0.00 | 0.00 | 0.00 | 68 | 1013.8 |
| 20260505080416 | 12 | 215 | 1.6 | 6.4 | 0.00 | 0.00 | 0.00 | 68 | 1013.8 |
| 20260505075416 | 11 | 184 | 0.0 | 6.4 | 0.00 | 0.00 | 0.00 | 68 | 1013.7 |
| 20260505073415 | 11 | 146 | 1.6 | 9.7 | 0.00 | 0.00 | 0.00 | 68 | 1013.6 |
| 20260505072414 | 11 | 214 | 8.0 | 11.3 | 0.00 | 0.00 | 0.00 | 68 | 1013.4 |
| 20260505070413 | 11 | 163 | 0.0 | 6.4 | 0.00 | 0.00 | 0.00 | 67 | 1013.4 |
| 20260505065413 | 11 | 166 | 3.2 | 8.0 | 0.00 | 0.00 | 0.00 | 66 | 1013.2 |
| 20260505064412 | 11 | 177 | 3.2 | 8.0 | 0.00 | 0.00 | 0.00 | 65 | 1013.3 |
| 20260505063412 | 11 | 184 | 0.0 | 8.0 | 0.00 | 0.00 | 0.00 | 65 | 1013.1 |
| 20260505062411 | 11 | 193 | 0.0 | 6.4 | 0.00 | 0.00 | 0.00 | 64 | 1013.1 |
| 20260505060411 | 12 | 205 | 0.0 | 4.8 | 0.00 | 0.00 | 0.00 | 63 | 1013.3 |
| 20260505055410 | 12 | 204 | 3.2 | 4.8 | 0.00 | 0.00 | 0.00 | 63 | 1013.2 |
| 20260505054409 | 12 | 205 | 0.0 | 6.4 | 0.00 | 0.00 | 0.00 | 63 | 1013.2 |
| 20260505053409 | 12 | 185 | 0.0 | 8.0 | 0.00 | 0.00 | 0.00 | 63 | 1013.2 |
| 20260505052409 | 12 | 171 | 4.8 | 9.7 | 0.00 | 0.00 | 0.00 | 62 | 1013.2 |
| 20260505050407 | 13 | 175 | 1.6 | 4.8 | 0.00 | 0.00 | 0.00 | 60 | 1012.9 |
| 20260505041405 | 14 | 161 | 0.0 | 6.4 | 0.00 | 0.00 | 0.00 | 58 | 1012.2 |
| 20260505040404 | 15 | 110 | 3.2 | 4.8 | 0.00 | 0.00 | 0.00 | 58 | 1011.9 |
| 20260505035403 | 15 | 219 | 1.6 | 8.0 | 0.00 | 0.00 | 0.00 | 57 | 1011.6 |
| 20260505034403 | 15 | 241 | 6.4 | 11.3 | 0.00 | 0.00 | 0.00 | 57 | 1011.7 |
| 20260505033403 | 15 | 254 | 8.0 | 19.3 | 0.00 | 0.00 | 0.00 | 57 | 1011.5 |
| 20260505032403 | 15 | 273 | 8.0 | 20.9 | 0.00 | 0.00 | 0.00 | 56 | 1011.3 |
| 20260505031403 | 16 | 294 | 20.9 | 22.5 | 0.00 | 0.00 | 0.00 | 55 | 1010.9 |
| 20260505030403 | 16 | 263 | 4.8 | 19.3 | 0.00 | 0.00 | 0.00 | 54 | 1010.8 |
| 20260505025402 | 17 | 278 | 12.9 | 19.3 | 0.00 | 0.00 | 0.00 | 53 | 1010.6 |
| 20260505024402 | 18 | 360 | 17.7 | 17.7 | 0.00 | 0.00 | 0.00 | 51 | 1010.5 |
| 20260505021401 | 19 | 275 | 6.4 | 20.9 | 0.00 | 0.00 | 0.00 | 49 | 1010.5 |
| 20260505020402 | 20 | 263 | 9.7 | 19.3 | 0.00 | 0.00 | 0.00 | 49 | 1010.4 |
| 20260505015401 | 20 | 329 | 9.7 | 19.3 | 0.00 | 0.00 | 0.00 | 48 | 1010.4 |
| 20260505014400 | 21 | 296 | 16.1 | 19.3 | 0.00 | 0.00 | 0.00 | 46 | 1010.4 |
| 20260505013359 | 22 | 267 | 11.3 | 16.1 | 0.00 | 0.00 | 0.00 | 46 | 1010.5 |
| 20260505012359 | 22 | 187 | 1.6 | 11.3 | 0.00 | 0.00 | 0.00 | 48 | 1010.6 |
| 20260505011358 | 22 | 212 | 3.2 | 14.5 | 0.00 | 0.00 | 0.00 | 48 | 1010.6 |
| 20260505010357 | 22 | 163 | 3.2 | 16.1 | 0.00 | 0.00 | 0.00 | 48 | 1010.7 |
| 20260505005357 | 22 | 198 | 6.4 | 11.3 | 0.00 | 0.00 | 0.00 | 48 | 1010.6 |
| 20260505004357 | 22 | 196 | 4.8 | 11.3 | 0.00 | 0.00 | 0.00 | 48 | 1010.9 |
| 20260505003357 | 22 | 159 | 6.4 | 11.3 | 0.00 | 0.00 | 0.00 | 48 | 1010.9 |